Date String (YYYY-MM-DD hh:mm:ss) UTC,Instrument flags,Ambient pressure (hPa),Sample flow (lpm),Bypass flow (lpm),Sample temperature (°C),Ambient temperature (°C),ASC tube jacket temperature (°C),LED temperature (°C),Box temperature (°C),Sample RH (%),Span deviation,Mass concentration (μg/m³),Mass concentration (μg/m³),Mass concentration (μg/m³)
DateTimeUTC,F1_M11,P_M11,Q1_M11,Q2_M11,T1_M11,T2_M11,T3_M11,T4_M11,T5_M11,U1_M11,ZSPAN_M11,X0_M11,X2_M11,X1_M11
2021-10-03 12:00:00,,0831.4,5.00,0.00,29.0,27.9,00.0,38.2,30.7,15.1,0002.0,0008.72,0004.52,0004.03
2021-10-03 12:01:00,,0831.5,5.00,0.00,29.0,27.9,00.0,38.2,30.7,15.0,0002.5,0008.66,0004.51,0004.04
2021-10-03 12:02:00,,0831.5,5.01,0.00,29.0,27.9,00.0,38.2,30.7,15.2,0002.4,0008.45,0004.48,0004.03
2021-10-03 12:03:00,,0831.5,5.00,0.00,29.0,27.9,00.0,38.2,30.7,15.3,0002.0,0008.46,0004.53,0004.04
2021-10-03 12:04:00,,0831.5,5.00,0.00,29.0,27.9,00.0,38.2,30.7,15.4,0002.1,0008.56,0004.55,0004.05
2021-10-03 12:05:00,,0831.5,4.98,0.00,29.0,27.9,00.0,38.2,30.7,15.0,0002.0,0008.46,0004.52,0004.06
2021-10-03 12:06:00,,0831.5,5.01,0.00,29.0,27.9,00.0,38.2,30.7,14.9,0001.8,0008.47,0004.52,0004.04
2021-10-03 12:07:00,,0831.5,4.99,0.00,29.0,27.9,00.0,38.2,30.7,15.0,0001.8,0008.53,0004.50,0004.03
2021-10-03 12:08:00,,0831.5,5.01,0.00,29.0,27.9,00.0,38.2,30.7,15.0,0002.1,0008.83,0004.45,0004.02
2021-10-03 12:09:00,,0831.5,4.99,0.00,29.0,27.9,00.0,38.1,30.7,15.1,0002.1,0008.75,0004.42,0004.02
2021-10-03 12:10:00,,0831.5,4.99,0.00,29.0,27.8,00.0,38.1,30.7,15.1,0002.0,0008.17,0004.40,0004.00
2021-10-03 12:11:00,,0831.5,5.00,0.00,29.0,27.9,00.0,38.1,30.7,15.0,0001.8,0007.97,0004.40,0004.00
2021-10-03 12:12:00,,0831.5,5.01,0.00,28.9,27.9,00.0,38.1,30.7,14.8,0001.2,0008.04,0004.37,0003.98
2021-10-03 12:13:00,,0831.5,5.01,0.00,28.9,27.9,00.0,38.1,30.7,14.7,0001.5,0008.19,0004.36,0003.97
2021-10-03 12:14:00,,0831.5,4.99,0.00,29.0,27.9,00.0,38.1,30.7,14.7,0001.4,0008.04,0004.30,0003.96
2021-10-03 12:15:00,,0831.5,5.00,0.00,28.9,27.9,00.0,38.1,30.7,14.7,0001.1,0007.86,0004.26,0003.94
2021-10-03 12:16:00,,0831.5,5.00,0.00,29.0,27.9,00.0,38.1,30.7,14.8,0001.5,0007.74,0004.23,0003.92
2021-10-03 12:17:00,,0831.5,5.00,0.00,29.0,27.9,00.0,38.1,30.7,15.0,0001.5,0007.66,0004.23,0003.92
2021-10-03 12:18:00,,0831.5,4.99,0.00,28.9,27.9,00.0,38.1,30.7,15.1,0000.0,0007.64,0004.23,0003.92
2021-10-03 12:19:00,,0831.5,5.00,0.00,28.9,27.9,00.0,38.1,30.7,15.2,0000.0,0008.08,0004.26,0003.92
2021-10-03 12:20:00,,0831.5,5.02,0.00,28.9,27.9,00.0,38.1,30.7,15.0,0002.3,0008.20,0004.26,0003.92
2021-10-03 12:21:00,,0831.6,5.00,0.00,28.9,27.8,00.0,38.1,30.6,15.0,0000.9,0008.20,0004.26,0003.92
2021-10-03 12:22:00,,0831.5,5.00,0.00,28.9,27.9,00.0,38.1,30.6,15.0,0000.9,0008.16,0004.23,0003.90
2021-10-03 12:23:00,,0831.5,4.99,0.00,28.9,27.8,00.0,38.1,30.6,14.7,0002.8,0008.11,0004.25,0003.90
2021-10-03 12:24:00,,0831.5,5.01,0.00,28.9,27.8,00.0,38.1,30.6,14.7,0002.6,0008.47,0004.27,0003.90
2021-10-03 12:25:00,,0831.5,5.00,0.00,28.9,27.8,00.0,38.1,30.6,14.7,0002.0,0008.59,0004.28,0003.89
2021-10-03 12:26:00,,0831.6,5.00,0.00,28.9,27.8,00.0,38.1,30.6,14.8,0003.2,0008.63,0004.29,0003.90
2021-10-03 12:27:00,,0831.6,4.99,0.00,28.9,27.8,00.0,38.1,30.6,14.7,0003.3,0008.65,0004.29,0003.89
2021-10-03 12:28:00,,0831.6,5.00,0.00,28.9,27.8,00.0,38.1,30.6,14.9,0003.5,0008.69,0004.30,0003.89
2021-10-03 12:29:00,,0831.6,5.00,0.00,28.9,27.8,00.0,38.1,30.6,15.1,0003.4,0008.62,0004.30,0003.90
2021-10-03 12:30:00,,0831.6,4.99,0.00,28.9,27.8,00.0,38.1,30.6,15.0,0003.2,0007.97,0004.30,0003.91
2021-10-03 12:31:00,,0831.6,5.00,0.00,28.9,27.8,00.0,38.1,30.6,14.9,0003.1,0007.71,0004.29,0003.92
2021-10-03 12:32:00,,0831.6,5.01,0.00,28.9,27.8,00.0,38.0,30.6,14.8,0002.7,0007.72,0004.30,0003.92
2021-10-03 12:33:00,,0831.6,5.00,0.00,28.9,27.8,00.0,38.1,30.6,14.8,0002.6,0007.69,0004.30,0003.92
2021-10-03 12:34:00,,0831.6,4.99,0.00,28.9,27.8,00.0,38.0,30.6,14.6,0003.0,0007.73,0004.30,0003.92
2021-10-03 12:35:00,,0831.6,5.01,0.00,28.9,27.8,00.0,38.0,30.6,14.5,0002.9,0007.18,0004.28,0003.91
2021-10-03 12:36:00,,0831.7,4.99,0.00,28.9,27.8,00.0,38.0,30.6,14.7,0002.8,0007.15,0004.27,0003.92
2021-10-03 12:37:00,,0831.7,5.02,0.00,28.9,27.8,00.0,38.0,30.6,14.8,0002.6,0007.21,0004.27,0003.91
2021-10-03 12:38:00,,0831.7,4.99,0.00,28.9,27.8,00.0,38.0,30.6,14.6,0002.0,0007.31,0004.29,0003.90
2021-10-03 12:39:00,,0831.6,5.00,0.00,28.9,27.8,00.0,38.0,30.6,14.4,0002.2,0007.16,0004.25,0003.89
2021-10-03 12:40:00,,0831.7,5.01,0.00,28.9,27.8,00.0,38.0,30.6,14.9,0002.6,0007.37,0004.26,0003.88
2021-10-03 12:41:00,,0831.6,4.99,0.00,28.9,27.8,00.0,38.0,30.6,14.9,0002.7,0007.42,0004.27,0003.87
2021-10-03 12:42:00,,0831.6,5.01,0.00,28.9,27.8,00.0,38.0,30.6,14.6,0002.6,0007.36,0004.26,0003.87
2021-10-03 12:43:00,,0831.6,4.99,0.00,28.8,27.8,00.0,38.0,30.5,14.4,0002.7,0007.38,0004.25,0003.87
2021-10-03 12:44:00,,0831.6,5.01,0.00,28.8,27.8,00.0,38.0,30.6,14.4,0002.5,0007.44,0004.27,0003.87
2021-10-03 12:45:00,,0831.6,5.00,0.00,28.8,27.8,00.0,38.0,30.6,14.4,0001.9,0007.40,0004.24,0003.86
2021-10-03 12:46:00,,0831.6,4.99,0.00,28.8,27.7,00.0,38.0,30.5,14.1,0001.9,0007.45,0004.27,0003.86
2021-10-03 12:47:00,,0831.7,5.01,0.00,28.8,27.7,00.0,38.0,30.5,14.1,0001.9,0007.32,0004.27,0003.86
2021-10-03 12:48:00,,0831.7,5.01,0.00,28.8,27.7,00.0,38.0,30.5,14.5,0002.3,0007.30,0004.28,0003.85
2021-10-03 12:49:00,,0831.7,4.99,0.00,28.8,27.7,00.0,38.0,30.5,14.5,0001.1,0007.34,0004.31,0003.86
2021-10-03 12:50:00,,0831.7,5.01,0.00,28.8,27.7,00.0,38.0,30.5,14.3,0002.7,0007.30,0004.33,0003.88
2021-10-03 12:51:00,,0831.7,5.00,0.00,28.8,27.7,00.0,38.0,30.5,14.2,0001.2,0007.02,0004.29,0003.87
2021-10-03 12:52:00,,0831.7,5.00,0.00,28.8,27.7,00.0,38.0,30.5,14.3,0000.0,0006.84,0004.23,0003.85
2021-10-03 12:53:00,,0831.7,5.00,0.00,28.8,27.7,00.0,38.0,30.5,14.3,0000.0,0006.88,0004.23,0003.84
2021-10-03 12:54:00,,0831.7,4.98,0.00,28.8,27.7,00.0,38.0,30.5,14.3,0000.0,0006.85,0004.23,0003.82
2021-10-03 12:55:00,,0831.7,5.01,0.00,28.8,27.7,00.0,38.0,30.5,14.6,0000.0,0006.87,0004.21,0003.81
2021-10-03 12:56:00,,0831.7,5.01,0.00,28.8,27.7,00.0,38.0,30.5,14.4,0001.4,0007.49,0004.21,0003.81
2021-10-03 12:57:00,,0831.7,5.00,0.00,28.8,27.7,00.0,38.0,30.5,14.3,0002.0,0007.63,0004.19,0003.82
2021-10-03 12:58:00,,0831.7,5.01,0.00,28.8,27.7,00.0,38.0,30.5,14.4,0001.5,0007.82,0004.21,0003.82
2021-10-03 12:59:00,,0831.7,5.01,0.00,28.8,27.7,00.0,38.0,30.5,14.5,0001.2,0008.07,0004.20,0003.83
